Location: Leipzig
(51.3392°N, 12.3528°E)
Time: 12:35:00
(UTC+01:00)

ISS - Pass Details

Date: 07 January 2018
Orbit: 402 x 407 km, 51.6° (Epoch: 19 January)

Event Time Altitude Azimuth Distance (km) Brightness Sun altitude
Exits shadow 05:56:20 77° 59° (ENE) 423 -3.8 -20.4°
Drops below altitude 10° 05:59:27 10° 90° (E) 1,470 0.2 -19.9°
Sets 06:01:32 0° 91° (E) 2,331 1.6 -19.6°
